Orbital Elements at Epoch 2459000.5 (2020-May-31.0) TDB
Reference: JPL 14 (heliocentric ecliptic J2000)
Element | Value | Uncertainty (1-sigma) | Units |
e | .1910635122888685 | 1.0129e-07 | |
a | 3.950495642340322 | 1.2053e-07 | au |
q | 3.19570006963291 | 4.2008e-07 | au |
i | 9.959707785581013 | 8.9939e-06 | deg |
node | 65.45248802502647 | 5.1799e-05 | deg |
peri | 315.72713930877 | 5.5716e-05 | deg |
M | 259.0437960912989 | 2.6879e-05 | deg |
tp | 2459804.778239945839 (2022-Aug-13.27823995) | 0.00024654 | TDB |
period | 2867.977946579144 7.85 | 0.00013125 3.593e-07 | d yr |
n | .1255239777660771 | 5.7446e-09 | deg/d |
Q | 4.705291215047733 | 1.4356e-07 | au |
|
| | Orbit Determination Parameters
Additional Information
|